Printer-friendly version

IAU Minor Planet Center

Minor Planet Center

MPEC 2008-L08 : 2008 KV28

The following Minor Planet Electronic Circular may be linked-to from your own Web pages, but must not otherwise be redistributed electronically.


Read MPEC 2008-L07 Read MPEC 2008-L09


M.P.E.C. 2008-L08                                Issued 2008 June 2, 11:52 UT

     The Minor Planet Electronic Circulars contain information on unusual
         minor planets and routine data on comets.  They are published
   on behalf of Commission 20 of the International Astronomical Union by the
          Minor Planet Center, Smithsonian Astrophysical Observatory,
                          Cambridge, MA 02138, U.S.A.

             Prepared using the Tamkin Foundation Computer Network

                              MPC@CFA.HARVARD.EDU
          URL http://www.cfa.harvard.edu/iau/mpc.html  ISSN 1523-6714

                                   2008 KV28

Observations:
     K08K28V* C2008 05 31.21058 15 48 33.21 -00 12 36.9          21.0 V EL008691
     K08K28V  C2008 05 31.22818 15 48 31.49 -00 11 57.4          20.7 V EL008691
     K08K28V  C2008 05 31.24580 15 48 29.80 -00 11 17.0          20.7 V EL008691
     K08K28V  C2008 05 31.31849 15 48 22.69 -00 08 30.6                 EL008291
     K08K28V HC2008 05 31.32251 15 48 22.26 -00 08 20.0                 EL008291
     K08K28V  C2008 05 31.32651 15 48 21.84 -00 08 11.0                 EL008291
     K08K28V 4C2008 05 31.35769 15 48 19.56 -00 06 57.3          20.2 R EL008F65
     K08K28V 4C2008 05 31.37688 15 48 17.67 -00 06 13.3          20.2 R EL008F65
     K08K28V 4C2008 05 31.38539 15 48 16.82 -00 05 53.8          20.4 R EL008F65
     K08K28V HC2008 06 01.39266 15 46 43.29 +00 32 29.0                 EL008291
     K08K28V HC2008 06 01.39638 15 46 43.01 +00 32 36.7                 EL008291
     K08K28V HC2008 06 01.40000 15 46 42.52 +00 32 46.6                 EL008291
     K08K28V 4C2008 06 02.28178 15 45 22.91 +01 06 14.4          19.9 R EL008F65
     K08K28V 4C2008 06 02.29405 15 45 21.71 +01 06 42.3          20.2 R EL008F65
     K08K28V 4C2008 06 02.30473 15 45 20.55 +01 07 06.9          19.9 R EL008F65
     K08K28V tC2008 06 02.32400 15 45 18.06 +01 07 46.7                 EL008291
     K08K28V tC2008 06 02.32774 15 45 17.63 +01 07 57.2          21.0 V EL008291
     K08K28V tC2008 06 02.33157 15 45 17.37 +01 08 05.0                 EL008291

Observer details:
291 LPL/Spacewatch II.  Observers A. F. Tubbiolo, T. H. Bressi.  1.8-m f/2.7
    reflector + CCD.
691 Steward Observatory, Kitt Peak.  Observers T. H. Bressi, A. F. Tubbiolo.
    0.9-m f/3 reflector + CCD.
F65 Haleakala-Faulkes Telescope North.  Observer J. Bedient.  2.0-m
    Ritchey-Chretien + CCD.

Orbital elements:
2008 KV28                                                Earth MOID = 0.2054 AU
Epoch 2008 May 14.0 TT = JDT 2454600.5                  MPC
M 299.46204              (2000.0)            P               Q
n   0.43168993     Peri.  116.33971     +0.90952720     +0.29720769
a   1.7338896      Node   227.94053     -0.34415345     +0.93048661
e   0.3908911      Incl.   23.03911     +0.23306367     +0.21415475
P   2.28           H   20.0           G   0.15           U   8
Residuals in seconds of arc
080531 691  0.0   0.6+    080531 F65  0.4+  0.2-    080602 F65  0.9+  0.3-
080531 691  0.1-  0.3-    080531 F65  0.3+  0.2-    080602 F65  0.7+  0.3-
080531 691  0.3+  0.4-    080531 F65  0.1+  0.2-    080602 F65  1.2-  0.1+
080531 291  0.3+  0.8-    080601 291  0.2+  0.2+    080602 291  0.0   1.1-
080531 291  0.3-  0.5+    080601 291  1.4+  0.6-    080602 291  1.1-  0.9+
080531 291  0.7-  0.3+    080601 291  0.8-  1.0+    080602 291  0.6+  0.0

Ephemeris:
2008 KV28                a,e,i = 1.73, 0.39, 23                  q = 1.0561
Date    TT    R. A. (2000) Decl.     Delta      r     Elong.  Phase     V
2008 06 03    15 44.28   +01 33.4    0.569    1.540   151.9    18.1    20.7
2008 06 13    15 30.07   +07 27.2    0.564    1.485   138.2    27.1    20.8
2008 06 23    15 19.26   +12 18.1    0.575    1.429   125.5    35.4    21.0
2008 07 03    15 13.15   +15 56.3    0.595    1.374   114.4    42.4    21.2
2008 07 13    15 12.25   +18 29.3    0.618    1.320   105.1    48.0    21.4
2008 07 23    15 16.36   +20 12.3    0.637    1.268    97.6    52.6    21.5
2008 08 02    15 25.03   +21 18.5    0.650    1.219    91.5    56.3    21.5
2008 08 12    15 37.92   +21 58.5    0.654    1.174    86.7    59.5    21.6
2008 08 22    15 54.71   +22 19.9    0.648    1.135    83.2    62.3    21.5
2008 09 01    16 15.37   +22 25.4    0.631    1.102    80.8    64.7    21.5
2008 09 11    16 40.21   +22 15.3    0.605    1.077    79.6    66.8    21.4
2008 09 21    17 09.81   +21 46.2    0.571    1.062    79.6    68.5    21.3
2008 10 01    17 45.23   +20 48.8    0.533    1.056    80.8    69.3    21.2
2008 10 11    18 27.84   +19 10.8    0.493    1.061    83.4    69.1    21.0
2008 10 21    19 18.56   +16 36.6    0.460    1.076    87.2    67.5    20.9
2008 10 31    20 16.93   +12 57.8    0.442    1.100    92.0    64.4    20.7
2008 11 10    21 19.61   +08 34.0    0.445    1.133    96.8    60.2    20.7
2008 11 20    22 20.98   +04 14.4    0.476    1.172   100.5    56.0    20.8
2008 11 30    23 16.34   +00 48.3    0.534    1.217   102.2    52.4    21.0
2008 12 10    00 03.90   -01 24.2    0.615    1.266   102.2    49.5    21.3
2008 12 20    00 44.19   -02 30.6    0.712    1.318   100.7    47.2    21.6
2008 12 30    01 18.72   -02 46.5    0.823    1.372    98.4    45.2    22.0

Timothy B. Spahr             (C) Copyright 2008 MPC           M.P.E.C. 2008-L08

Read MPEC 2008-L07 Read MPEC 2008-L09


Our Web policy. Index to the CBAT/MPC/ICQ pages.


Valid HTML 4.01!